TimeCDT,TemperatureF,Dew PointF,Humidity,Sea Level PressureIn,VisibilityMPH,Wind Direction,Wind SpeedMPH,Gust SpeedMPH,PrecipitationIn,Events,Conditions,WindDirDegrees,DateUTC
12:15 AM,71.1,64.4,79,30.18,10.0,Calm,Calm,-,N/A,,Mostly Cloudy,0,2013-10-26 05:15:00
12:35 AM,70.9,64.4,80,30.17,10.0,Calm,Calm,-,N/A,,Overcast,0,2013-10-26 05:35:00
12:55 AM,70.2,64.0,81,30.16,10.0,Calm,Calm,-,N/A,,Mostly Cloudy,0,2013-10-26 05:55:00
1:15 AM,70.2,64.2,81,30.16,10.0,Calm,Calm,-,N/A,,Clear,0,2013-10-26 06:15:00
1:35 AM,69.6,63.9,82,30.15,10.0,Calm,Calm,-,N/A,,Scattered Clouds,0,2013-10-26 06:35:00
1:55 AM,68.5,62.6,81,30.15,10.0,Calm,Calm,-,N/A,,Scattered Clouds,0,2013-10-26 06:55:00
2:15 AM,69.1,63.7,83,30.15,10.0,Calm,Calm,-,N/A,,Scattered Clouds,0,2013-10-26 07:15:00
2:35 AM,68.7,63.3,83,30.14,10.0,Calm,Calm,-,N/A,,Mostly Cloudy,0,2013-10-26 07:35:00
2:55 AM,66.6,61.9,85,30.14,10.0,Calm,Calm,-,N/A,,Scattered Clouds,0,2013-10-26 07:55:00
3:15 AM,66.6,62.4,86,30.13,10.0,Calm,Calm,-,N/A,,Mostly Cloudy,0,2013-10-26 08:15:00
3:35 AM,67.3,62.8,85,30.13,10.0,Calm,Calm,-,N/A,,Scattered Clouds,0,2013-10-26 08:35:00
3:55 AM,67.5,62.6,84,30.12,10.0,Calm,Calm,-,N/A,,Scattered Clouds,0,2013-10-26 08:55:00
4:15 AM,67.8,63.0,84,30.12,10.0,Calm,Calm,-,N/A,,Scattered Clouds,0,2013-10-26 09:15:00
4:35 AM,67.5,62.6,84,30.12,10.0,Calm,Calm,-,N/A,,Clear,0,2013-10-26 09:35:00
4:55 AM,66.6,62.1,85,30.12,10.0,Calm,Calm,-,N/A,,Clear,0,2013-10-26 09:55:00
5:15 AM,66.6,62.2,86,30.11,10.0,Calm,Calm,-,N/A,,Clear,0,2013-10-26 10:15:00
5:35 AM,66.2,61.9,86,30.11,10.0,Calm,Calm,-,N/A,,Clear,0,2013-10-26 10:35:00
5:55 AM,66.9,62.8,87,30.12,10.0,Calm,Calm,-,N/A,,Clear,0,2013-10-26 10:55:00
6:15 AM,67.6,63.5,87,30.12,10.0,Calm,Calm,-,N/A,,Clear,0,2013-10-26 11:15:00
6:35 AM,67.1,62.8,86,30.12,10.0,Calm,Calm,-,N/A,,Clear,0,2013-10-26 11:35:00
6:55 AM,67.1,63.3,88,30.12,10.0,Calm,Calm,-,N/A,,Clear,0,2013-10-26 11:55:00
7:15 AM,67.3,63.5,88,30.12,10.0,Calm,Calm,-,N/A,,Clear,0,2013-10-26 12:15:00
7:35 AM,68.5,63.7,84,30.12,10.0,Calm,Calm,-,N/A,,Clear,0,2013-10-26 12:35:00
7:55 AM,67.6,63.0,85,30.13,10.0,Calm,Calm,-,N/A,,Clear,0,2013-10-26 12:55:00
8:15 AM,67.8,63.5,86,30.13,10.0,Calm,Calm,-,N/A,,Clear,0,2013-10-26 13:15:00
8:35 AM,69.6,64.9,85,30.14,10.0,Calm,Calm,-,N/A,,Clear,0,2013-10-26 13:35:00
8:55 AM,72.7,65.1,77,30.14,10.0,Calm,Calm,-,N/A,,Clear,0,2013-10-26 13:55:00
9:15 AM,74.7,65.5,73,30.15,10.0,Calm,Calm,-,N/A,,Clear,0,2013-10-26 14:15:00
9:35 AM,77.7,65.8,67,30.16,10.0,Calm,Calm,-,N/A,,Clear,0,2013-10-26 14:35:00
9:55 AM,80.6,64.8,58,30.16,7.0,SE,11.5,-,N/A,,Clear,140,2013-10-26 14:55:00
10:15 AM,82.6,64.4,54,30.17,7.0,ESE,11.5,-,N/A,,Clear,120,2013-10-26 15:15:00
10:35 AM,84.0,64.2,51,30.17,7.0,SE,17.3,-,N/A,,Clear,140,2013-10-26 15:35:00
10:55 AM,84.9,62.2,46,30.17,7.0,SE,17.3,21.9,N/A,,Scattered Clouds,140,2013-10-26 15:55:00
11:15 AM,86.2,60.6,42,30.17,7.0,SSE,16.1,-,N/A,,Scattered Clouds,150,2013-10-26 16:15:00
11:35 AM,86.9,59.4,39,30.17,7.0,SE,18.4,24.2,N/A,,Scattered Clouds,140,2013-10-26 16:35:00
11:55 AM,86.4,60.6,42,30.16,7.0,SSE,12.7,18.4,N/A,,Overcast,150,2013-10-26 16:55:00
12:15 PM,87.3,59.5,39,30.15,7.0,ESE,12.7,18.4,N/A,,Overcast,120,2013-10-26 17:15:00
12:35 PM,88.3,58.5,36,30.14,7.0,SSE,11.5,17.3,N/A,,Overcast,150,2013-10-26 17:35:00
12:55 PM,88.5,57.2,34,30.13,7.0,SSE,15.0,-,N/A,,Mostly Cloudy,160,2013-10-26 17:55:00
1:15 PM,88.5,57.6,35,30.12,7.0,SE,12.7,20.7,N/A,,Mostly Cloudy,130,2013-10-26 18:15:00
1:35 PM,88.2,58.3,36,30.11,7.0,SE,3.5,16.1,N/A,,Mostly Cloudy,130,2013-10-26 18:35:00
1:55 PM,87.6,56.8,35,30.10,5.0,SSE,13.8,19.6,N/A,,Haze,150,2013-10-26 18:55:00
2:15 PM,87.8,57.9,36,30.09,7.0,SSE,10.4,18.4,N/A,,Overcast,150,2013-10-26 19:15:00
2:35 PM,88.0,55.9,34,30.08,7.0,ESE,9.2,16.1,N/A,,Overcast,120,2013-10-26 19:35:00
2:55 PM,88.7,56.5,33,30.07,7.0,Calm,Calm,-,N/A,,Overcast,0,2013-10-26 19:55:00
3:15 PM,88.5,56.3,33,30.07,5.0,North,-9999.0,-,N/A,,Haze,0,2013-10-26 20:15:00
3:35 PM,89.6,57.0,33,30.07,10.0,SSE,11.5,16.1,N/A,,Overcast,160,2013-10-26 20:35:00
3:55 PM,88.9,56.7,33,30.06,5.0,SE,11.5,-,N/A,,Haze,140,2013-10-26 20:55:00
4:15 PM,89.1,57.0,34,30.06,7.0,SE,11.5,18.4,N/A,,Overcast,130,2013-10-26 21:15:00
4:35 PM,87.8,56.7,35,30.05,7.0,SE,8.1,-,N/A,,Mostly Cloudy,130,2013-10-26 21:35:00
4:55 PM,88.7,55.9,33,30.05,7.0,SSE,11.5,17.3,N/A,,Overcast,150,2013-10-26 21:55:00
5:15 PM,88.9,56.8,34,30.05,10.0,SE,13.8,17.3,N/A,,Overcast,130,2013-10-26 22:15:00
5:35 PM,86.2,58.5,39,30.05,7.0,SSE,11.5,-,N/A,,Overcast,150,2013-10-26 22:35:00
5:55 PM,86.7,58.1,38,30.05,7.0,SE,13.8,-,N/A,,Overcast,140,2013-10-26 22:55:00
6:15 PM,85.5,58.3,40,30.05,10.0,SE,12.7,-,N/A,,Overcast,140,2013-10-26 23:15:00
6:35 PM,85.1,59.5,42,30.06,10.0,SE,11.5,-,N/A,,Overcast,140,2013-10-26 23:35:00
6:55 PM,83.5,60.1,45,30.06,10.0,SE,10.4,-,N/A,,Overcast,140,2013-10-26 23:55:00
7:15 PM,83.3,59.9,45,30.06,10.0,SE,8.1,-,N/A,,Overcast,130,2013-10-27 00:15:00
7:35 PM,80.8,60.3,49,30.07,10.0,Calm,Calm,-,N/A,,Mostly Cloudy,0,2013-10-27 00:35:00
7:55 PM,79.3,60.8,53,30.07,10.0,Calm,Calm,-,N/A,,Scattered Clouds,0,2013-10-27 00:55:00
8:15 PM,78.8,62.6,57,30.07,7.0,Calm,Calm,-,N/A,,Clear,0,2013-10-27 01:15:00
8:35 PM,76.8,62.8,62,30.08,10.0,Calm,Calm,-,N/A,,Clear,0,2013-10-27 01:35:00
8:55 PM,77.2,63.5,63,30.08,10.0,Calm,Calm,-,N/A,,Clear,0,2013-10-27 01:55:00
9:15 PM,76.5,63.9,65,30.08,10.0,Calm,Calm,-,N/A,,Clear,0,2013-10-27 02:15:00
9:35 PM,75.2,64.0,68,30.09,10.0,Calm,Calm,-,N/A,,Clear,0,2013-10-27 02:35:00
9:55 PM,74.1,64.4,72,30.09,10.0,Calm,Calm,-,N/A,,Clear,0,2013-10-27 02:55:00
10:15 PM,73.0,64.6,75,30.08,10.0,Calm,Calm,-,N/A,,Clear,0,2013-10-27 03:15:00
10:35 PM,72.5,64.4,76,30.09,10.0,Calm,Calm,-,N/A,,Clear,0,2013-10-27 03:35:00
10:55 PM,71.8,64.0,77,30.08,10.0,Calm,Calm,-,N/A,,Clear,0,2013-10-27 03:55:00
11:15 PM,71.6,63.9,76,30.08,10.0,Calm,Calm,-,N/A,,Clear,0,2013-10-27 04:15:00
11:35 PM,70.7,63.5,78,30.08,10.0,Calm,Calm,-,N/A,,Clear,0,2013-10-27 04:35:00
11:55 PM,70.2,63.7,80,30.07,10.0,Calm,Calm,-,N/A,,Clear,0,2013-10-27 04:55:00